Location: Newark
(46.7000°N, 60.6000°W)
Time: 13:08:53
(UTC+00:00)

A-11 Canister half - Pass Details

Date: 28 October 2020
Orbit: 1525 x 1684 km, 47.3° (Epoch: 01 December)

Event Time Altitude Azimuth Distance (km) Brightness Sun altitude
Rises 00:45:21 0° 291° (WNW) 4,693 12.4 -39.5°
Reaches altitude 10° 00:48:32 10° 286° (WNW) 3,700 11.7 -40.0°
Enters shadow 00:56:08 45° 235° (SW) 1,992 9.5 -41.2°
Maximum altitude 00:57:13 46° 217° (SW) 1,954 - -41.3°
Drops below altitude 10° 01:05:56 10° 148° (SSE) 3,709 - -42.6°
Sets 01:09:08 0° 142° (SE) 4,704 - -43.1°
